Time,TemperatureF,DewpointF,PressureIn,WindDirection,WindDirectionDegrees,WindSpeedMPH,WindSpeedGustMPH,Humidity,HourlyPrecipIn,Conditions,Clouds,dailyrainin,SoftwareType,DateUTC
2013-01-09 00:00:00,48.7,48.2,29.90,North,-999,-999.0,-999.0,98,0.00,,,0.00,AD6XL-WX-0.1,2013-01-09 08:00:00,
2013-01-09 00:05:00,48.7,48.1,29.90,North,-999,-999.0,-999.0,97,0.00,,,0.00,AD6XL-WX-0.1,2013-01-09 08:05:00,
2013-01-09 00:10:00,48.7,48.0,29.90,North,-999,-999.0,-999.0,97,0.00,,,0.00,AD6XL-WX-0.1,2013-01-09 08:10:00,
2013-01-09 00:16:00,48.7,47.9,29.90,North,-999,-999.0,-999.0,96,0.00,,,0.00,AD6XL-WX-0.1,2013-01-09 08:16:00,
2013-01-09 00:21:00,48.8,47.7,29.90,North,-999,-999.0,-999.0,96,0.00,,,0.00,AD6XL-WX-0.1,2013-01-09 08:21:00,
2013-01-09 00:26:00,48.8,47.5,29.90,North,-999,-999.0,-999.0,94,0.00,,,0.00,AD6XL-WX-0.1,2013-01-09 08:26:00,
2013-01-09 00:31:00,49.0,47.3,29.90,North,-999,-999.0,-999.0,93,0.00,,,0.00,AD6XL-WX-0.1,2013-01-09 08:31:00,
2013-01-09 00:36:00,49.1,47.1,29.90,North,-999,-999.0,-999.0,92,0.00,,,0.00,AD6XL-WX-0.1,2013-01-09 08:36:00,
2013-01-09 00:41:00,49.3,46.9,29.89,North,-999,-999.0,-999.0,91,0.00,,,0.00,AD6XL-WX-0.1,2013-01-09 08:41:00,
2013-01-09 00:46:00,49.4,46.7,29.89,North,-999,-999.0,-999.0,90,0.00,,,0.00,AD6XL-WX-0.1,2013-01-09 08:46:00,
2013-01-09 00:51:00,49.6,46.6,29.89,North,-999,-999.0,-999.0,89,0.00,,,0.00,AD6XL-WX-0.1,2013-01-09 08:51:00,
2013-01-09 00:56:00,49.7,46.5,29.89,North,-999,-999.0,-999.0,88,0.00,,,0.00,AD6XL-WX-0.1,2013-01-09 08:56:00,
2013-01-09 01:01:00,49.8,46.5,29.89,North,-999,-999.0,-999.0,88,0.00,,,0.00,AD6XL-WX-0.1,2013-01-09 09:01:00,
2013-01-09 01:06:00,50.0,46.4,29.89,North,-999,-999.0,-999.0,87,0.00,,,0.00,AD6XL-WX-0.1,2013-01-09 09:06:00,
2013-01-09 01:11:00,50.1,46.4,29.89,North,-999,-999.0,-999.0,87,0.00,,,0.00,AD6XL-WX-0.1,2013-01-09 09:11:00,
2013-01-09 01:16:00,50.2,46.4,29.88,North,-999,-999.0,-999.0,86,0.00,,,0.00,AD6XL-WX-0.1,2013-01-09 09:16:00,
2013-01-09 01:21:00,50.2,46.4,29.88,North,-999,-999.0,-999.0,86,0.00,,,0.00,AD6XL-WX-0.1,2013-01-09 09:21:00,
2013-01-09 01:27:00,50.3,46.4,29.88,North,-999,-999.0,-999.0,86,0.00,,,0.00,AD6XL-WX-0.1,2013-01-09 09:27:00,
2013-01-09 01:32:00,50.4,46.5,29.88,North,-999,-999.0,-999.0,86,0.00,,,0.00,AD6XL-WX-0.1,2013-01-09 09:32:00,
2013-01-09 01:37:00,50.5,46.5,29.88,North,-999,-999.0,-999.0,86,0.00,,,0.00,AD6XL-WX-0.1,2013-01-09 09:37:00,
2013-01-09 01:42:00,50.5,46.5,29.87,North,-999,-999.0,-999.0,85,0.00,,,0.00,AD6XL-WX-0.1,2013-01-09 09:42:00,
2013-01-09 01:47:00,50.6,46.5,29.87,North,-999,-999.0,-999.0,85,0.00,,,0.00,AD6XL-WX-0.1,2013-01-09 09:47:00,
2013-01-09 01:52:00,50.6,46.4,29.87,North,-999,-999.0,-999.0,85,0.00,,,0.00,AD6XL-WX-0.1,2013-01-09 09:52:00,
2013-01-09 01:57:00,50.7,46.4,29.87,North,-999,-999.0,-999.0,85,0.00,,,0.00,AD6XL-WX-0.1,2013-01-09 09:57:00,
2013-01-09 02:02:00,50.7,46.4,29.87,North,-999,-999.0,-999.0,84,0.00,,,0.00,AD6XL-WX-0.1,2013-01-09 10:02:00,
2013-01-09 02:07:00,50.7,46.3,29.87,North,-999,-999.0,-999.0,84,0.00,,,0.00,AD6XL-WX-0.1,2013-01-09 10:07:00,
2013-01-09 02:12:00,50.7,46.3,29.87,North,-999,-999.0,-999.0,84,0.00,,,0.00,AD6XL-WX-0.1,2013-01-09 10:12:00,
2013-01-09 02:17:00,50.7,46.3,29.86,North,-999,-999.0,-999.0,84,0.00,,,0.00,AD6XL-WX-0.1,2013-01-09 10:17:00,
2013-01-09 02:22:00,50.6,46.3,29.86,North,-999,-999.0,-999.0,85,0.00,,,0.00,AD6XL-WX-0.1,2013-01-09 10:22:00,
2013-01-09 02:28:00,50.6,46.3,29.86,North,-999,-999.0,-999.0,85,0.00,,,0.00,AD6XL-WX-0.1,2013-01-09 10:28:00,
2013-01-09 02:33:00,50.4,46.4,29.86,North,-999,-999.0,-999.0,86,0.00,,,0.00,AD6XL-WX-0.1,2013-01-09 10:33:00,
2013-01-09 02:38:00,50.3,46.5,29.85,North,-999,-999.0,-999.0,86,0.00,,,0.00,AD6XL-WX-0.1,2013-01-09 10:38:00,
2013-01-09 02:43:00,50.1,46.5,29.85,North,-999,-999.0,-999.0,87,0.00,,,0.00,AD6XL-WX-0.1,2013-01-09 10:43:00,
2013-01-09 02:48:00,50.0,46.6,29.85,North,-999,-999.0,-999.0,88,0.00,,,0.00,AD6XL-WX-0.1,2013-01-09 10:48:00,
2013-01-09 02:53:00,49.8,46.7,29.85,North,-999,-999.0,-999.0,88,0.00,,,0.00,AD6XL-WX-0.1,2013-01-09 10:53:00,
2013-01-09 02:58:00,49.7,46.7,29.84,North,-999,-999.0,-999.0,89,0.00,,,0.00,AD6XL-WX-0.1,2013-01-09 10:58:00,
2013-01-09 03:03:00,49.5,46.8,29.84,North,-999,-999.0,-999.0,90,0.00,,,0.00,AD6XL-WX-0.1,2013-01-09 11:03:00,
2013-01-09 03:08:00,49.4,46.8,29.84,North,-999,-999.0,-999.0,90,0.00,,,0.00,AD6XL-WX-0.1,2013-01-09 11:08:00,
2013-01-09 03:13:00,49.3,46.9,29.83,North,-999,-999.0,-999.0,91,0.00,,,0.00,AD6XL-WX-0.1,2013-01-09 11:13:00,
2013-01-09 03:18:00,49.2,46.9,29.83,North,-999,-999.0,-999.0,91,0.00,,,0.00,AD6XL-WX-0.1,2013-01-09 11:18:00,
2013-01-09 03:23:00,49.1,46.9,29.83,North,-999,-999.0,-999.0,92,0.00,,,0.00,AD6XL-WX-0.1,2013-01-09 11:23:00,
2013-01-09 03:28:00,49.1,47.0,29.82,North,-999,-999.0,-999.0,92,0.00,,,0.00,AD6XL-WX-0.1,2013-01-09 11:28:00,
2013-01-09 03:33:00,49.0,47.0,29.82,North,-999,-999.0,-999.0,92,0.00,,,0.00,AD6XL-WX-0.1,2013-01-09 11:33:00,
2013-01-09 03:38:00,48.9,47.0,29.82,North,-999,-999.0,-999.0,92,0.00,,,0.00,AD6XL-WX-0.1,2013-01-09 11:38:00,
2013-01-09 03:43:00,48.9,47.0,29.81,North,-999,-999.0,-999.0,93,0.00,,,0.00,AD6XL-WX-0.1,2013-01-09 11:43:00,
2013-01-09 03:49:00,48.8,47.0,29.81,North,-999,-999.0,-999.0,93,0.00,,,0.00,AD6XL-WX-0.1,2013-01-09 11:49:00,
2013-01-09 03:54:00,48.8,47.0,29.81,North,-999,-999.0,-999.0,93,0.00,,,0.00,AD6XL-WX-0.1,2013-01-09 11:54:00,
2013-01-09 03:59:00,48.8,47.0,29.80,North,-999,-999.0,-999.0,93,0.00,,,0.00,AD6XL-WX-0.1,2013-01-09 11:59:00,
2013-01-09 04:04:00,48.8,46.9,29.80,North,-999,-999.0,-999.0,93,0.00,,,0.00,AD6XL-WX-0.1,2013-01-09 12:04:00,
2013-01-09 04:09:00,48.8,46.9,29.80,North,-999,-999.0,-999.0,93,0.00,,,0.00,AD6XL-WX-0.1,2013-01-09 12:09:00,
2013-01-09 04:14:00,48.8,46.9,29.80,North,-999,-999.0,-999.0,93,0.00,,,0.00,AD6XL-WX-0.1,2013-01-09 12:14:00,
2013-01-09 04:19:00,48.8,46.9,29.79,North,-999,-999.0,-999.0,93,0.00,,,0.00,AD6XL-WX-0.1,2013-01-09 12:19:00,
2013-01-09 04:24:00,48.8,46.9,29.79,North,-999,-999.0,-999.0,93,0.00,,,0.00,AD6XL-WX-0.1,2013-01-09 12:24:00,
2013-01-09 04:29:00,48.8,46.9,29.79,North,-999,-999.0,-999.0,92,0.00,,,0.00,AD6XL-WX-0.1,2013-01-09 12:29:00,
2013-01-09 04:34:00,48.8,46.9,29.78,North,-999,-999.0,-999.0,92,0.00,,,0.00,AD6XL-WX-0.1,2013-01-09 12:34:00,
2013-01-09 04:39:00,48.9,46.8,29.78,North,-999,-999.0,-999.0,92,0.00,,,0.00,AD6XL-WX-0.1,2013-01-09 12:39:00,
2013-01-09 04:44:00,48.9,46.8,29.78,North,-999,-999.0,-999.0,92,0.00,,,0.00,AD6XL-WX-0.1,2013-01-09 12:44:00,
2013-01-09 04:49:00,48.9,46.7,29.77,North,-999,-999.0,-999.0,92,0.00,,,0.00,AD6XL-WX-0.1,2013-01-09 12:49:00,
2013-01-09 04:54:00,49.0,46.7,29.77,North,-999,-999.0,-999.0,91,0.00,,,0.00,AD6XL-WX-0.1,2013-01-09 12:54:00,
2013-01-09 04:59:00,49.0,46.6,29.76,North,-999,-999.0,-999.0,91,0.00,,,0.00,AD6XL-WX-0.1,2013-01-09 12:59:00,
2013-01-09 05:04:00,49.1,46.6,29.76,North,-999,-999.0,-999.0,90,0.00,,,0.00,AD6XL-WX-0.1,2013-01-09 13:04:00,
2013-01-09 05:09:00,49.2,46.5,29.76,North,-999,-999.0,-999.0,90,0.00,,,0.00,AD6XL-WX-0.1,2013-01-09 13:09:00,
2013-01-09 05:15:00,49.2,46.5,29.75,North,-999,-999.0,-999.0,90,0.00,,,0.00,AD6XL-WX-0.1,2013-01-09 13:15:00,
2013-01-09 05:20:00,49.3,46.4,29.75,North,-999,-999.0,-999.0,89,0.00,,,0.00,AD6XL-WX-0.1,2013-01-09 13:20:00,
2013-01-09 05:25:00,49.4,46.4,29.75,North,-999,-999.0,-999.0,89,0.00,,,0.00,AD6XL-WX-0.1,2013-01-09 13:25:00,
2013-01-09 05:30:00,49.4,46.3,29.74,North,-999,-999.0,-999.0,89,0.00,,,0.00,AD6XL-WX-0.1,2013-01-09 13:30:00,
2013-01-09 05:35:00,49.5,46.3,29.74,North,-999,-999.0,-999.0,88,0.00,,,0.00,AD6XL-WX-0.1,2013-01-09 13:35:00,
2013-01-09 05:40:00,49.5,46.3,29.73,North,-999,-999.0,-999.0,88,0.00,,,0.00,AD6XL-WX-0.1,2013-01-09 13:40:00,
2013-01-09 05:45:00,49.5,46.2,29.73,North,-999,-999.0,-999.0,88,0.00,,,0.00,AD6XL-WX-0.1,2013-01-09 13:45:00,
2013-01-09 05:50:00,49.6,46.2,29.72,North,-999,-999.0,-999.0,88,0.00,,,0.00,AD6XL-WX-0.1,2013-01-09 13:50:00,
2013-01-09 05:55:00,49.6,46.2,29.72,North,-999,-999.0,-999.0,88,0.00,,,0.00,AD6XL-WX-0.1,2013-01-09 13:55:00,
2013-01-09 06:00:00,49.6,46.3,29.72,North,-999,-999.0,-999.0,88,0.00,,,0.00,AD6XL-WX-0.1,2013-01-09 14:00:00,
2013-01-09 06:05:00,49.6,46.5,29.72,North,-999,-999.0,-999.0,88,0.01,,,0.01,AD6XL-WX-0.1,2013-01-09 14:05:00,
2013-01-09 06:10:00,49.5,46.6,29.72,North,-999,-999.0,-999.0,89,0.01,,,0.01,AD6XL-WX-0.1,2013-01-09 14:10:00,
2013-01-09 06:15:00,49.4,46.8,29.72,North,-999,-999.0,-999.0,90,0.02,,,0.02,AD6XL-WX-0.1,2013-01-09 14:15:00,
2013-01-09 06:20:00,49.3,47.0,29.72,North,-999,-999.0,-999.0,91,0.05,,,0.05,AD6XL-WX-0.1,2013-01-09 14:20:00,
2013-01-09 06:25:00,49.2,47.2,29.73,North,-999,-999.0,-999.0,92,0.10,,,0.10,AD6XL-WX-0.1,2013-01-09 14:25:00,
2013-01-09 06:30:00,48.9,47.3,29.73,North,-999,-999.0,-999.0,94,0.11,,,0.11,AD6XL-WX-0.1,2013-01-09 14:30:00,
2013-01-09 06:35:00,48.5,47.3,29.74,North,-999,-999.0,-999.0,95,0.12,,,0.12,AD6XL-WX-0.1,2013-01-09 14:35:00,
2013-01-09 06:41:00,48.1,47.2,29.74,North,-999,-999.0,-999.0,96,0.12,,,0.12,AD6XL-WX-0.1,2013-01-09 14:41:00,
2013-01-09 06:46:00,47.7,47.1,29.75,North,-999,-999.0,-999.0,97,0.12,,,0.12,AD6XL-WX-0.1,2013-01-09 14:46:00,
2013-01-09 06:51:00,47.2,46.8,29.76,North,-999,-999.0,-999.0,98,0.13,,,0.13,AD6XL-WX-0.1,2013-01-09 14:51:00,
2013-01-09 06:56:00,46.8,46.5,29.76,North,-999,-999.0,-999.0,99,0.13,,,0.13,AD6XL-WX-0.1,2013-01-09 14:56:00,
2013-01-09 07:01:00,46.4,46.2,29.76,North,-999,-999.0,-999.0,99,0.13,,,0.13,AD6XL-WX-0.1,2013-01-09 15:01:00,
2013-01-09 07:06:00,46.0,45.9,29.76,North,-999,-999.0,-999.0,99,0.12,,,0.13,AD6XL-WX-0.1,2013-01-09 15:06:00,
2013-01-09 07:11:00,45.7,45.6,29.76,North,-999,-999.0,-999.0,99,0.12,,,0.13,AD6XL-WX-0.1,2013-01-09 15:11:00,
2013-01-09 07:16:00,45.4,45.4,29.77,North,-999,-999.0,-999.0,99,0.11,,,0.13,AD6XL-WX-0.1,2013-01-09 15:16:00,
2013-01-09 07:21:00,45.2,45.2,29.77,North,-999,-999.0,-999.0,99,0.07,,,0.13,AD6XL-WX-0.1,2013-01-09 15:21:00,
2013-01-09 07:26:00,45.0,45.0,29.77,North,-999,-999.0,-999.0,99,0.02,,,0.13,AD6XL-WX-0.1,2013-01-09 15:26:00,
2013-01-09 07:31:00,44.8,44.8,29.77,North,-999,-999.0,-999.0,99,0.02,,,0.13,AD6XL-WX-0.1,2013-01-09 15:31:00,
2013-01-09 07:36:00,44.7,44.6,29.78,North,-999,-999.0,-999.0,99,0.01,,,0.13,AD6XL-WX-0.1,2013-01-09 15:36:00,
2013-01-09 07:41:00,44.5,44.5,29.78,North,-999,-999.0,-999.0,99,0.01,,,0.13,AD6XL-WX-0.1,2013-01-09 15:41:00,
2013-01-09 07:46:00,44.4,44.4,29.78,North,-999,-999.0,-999.0,99,0.01,,,0.13,AD6XL-WX-0.1,2013-01-09 15:46:00,
2013-01-09 07:51:00,44.2,44.2,29.79,North,-999,-999.0,-999.0,99,0.00,,,0.13,AD6XL-WX-0.1,2013-01-09 15:51:00,
2013-01-09 07:57:00,44.1,44.1,29.79,North,-999,-999.0,-999.0,99,0.00,,,0.13,AD6XL-WX-0.1,2013-01-09 15:57:00,
2013-01-09 08:02:00,44.0,43.9,29.80,North,-999,-999.0,-999.0,99,0.00,,,0.13,AD6XL-WX-0.1,2013-01-09 16:02:00,
2013-01-09 08:07:00,43.8,43.8,29.81,North,-999,-999.0,-999.0,99,0.00,,,0.13,AD6XL-WX-0.1,2013-01-09 16:07:00,
2013-01-09 08:12:00,43.7,43.6,29.81,North,-999,-999.0,-999.0,99,0.00,,,0.13,AD6XL-WX-0.1,2013-01-09 16:12:00,
2013-01-09 08:17:00,43.6,43.5,29.82,North,-999,-999.0,-999.0,99,0.00,,,0.13,AD6XL-WX-0.1,2013-01-09 16:17:00,
2013-01-09 08:22:00,43.5,43.4,29.82,North,-999,-999.0,-999.0,99,0.00,,,0.13,AD6XL-WX-0.1,2013-01-09 16:22:00,
2013-01-09 08:27:00,43.4,43.3,29.82,North,-999,-999.0,-999.0,99,0.00,,,0.13,AD6XL-WX-0.1,2013-01-09 16:27:00,
2013-01-09 08:32:00,43.4,43.2,29.83,North,-999,-999.0,-999.0,99,0.00,,,0.13,AD6XL-WX-0.1,2013-01-09 16:32:00,
2013-01-09 08:37:00,43.3,43.1,29.83,North,-999,-999.0,-999.0,99,0.00,,,0.13,AD6XL-WX-0.1,2013-01-09 16:37:00,
2013-01-09 08:42:00,43.2,43.0,29.83,North,-999,-999.0,-999.0,99,0.00,,,0.13,AD6XL-WX-0.1,2013-01-09 16:42:00,
2013-01-09 08:47:00,43.2,42.9,29.84,North,-999,-999.0,-999.0,98,0.00,,,0.13,AD6XL-WX-0.1,2013-01-09 16:47:00,
2013-01-09 08:52:00,43.1,42.7,29.84,North,-999,-999.0,-999.0,98,0.00,,,0.13,AD6XL-WX-0.1,2013-01-09 16:52:00,
2013-01-09 08:57:00,43.1,42.6,29.84,North,-999,-999.0,-999.0,98,0.00,,,0.13,AD6XL-WX-0.1,2013-01-09 16:57:00,
2013-01-09 09:02:00,43.0,42.5,29.84,North,-999,-999.0,-999.0,98,0.00,,,0.13,AD6XL-WX-0.1,2013-01-09 17:02:00,
2013-01-09 09:07:00,42.9,42.4,29.85,North,-999,-999.0,-999.0,98,0.00,,,0.13,AD6XL-WX-0.1,2013-01-09 17:07:00,
2013-01-09 09:12:00,42.9,42.4,29.85,North,-999,-999.0,-999.0,98,0.00,,,0.13,AD6XL-WX-0.1,2013-01-09 17:12:00,
2013-01-09 09:18:00,42.8,42.4,29.85,North,-999,-999.0,-999.0,98,0.00,,,0.13,AD6XL-WX-0.1,2013-01-09 17:18:00,
2013-01-09 09:23:00,42.8,42.4,29.85,North,-999,-999.0,-999.0,98,0.00,,,0.13,AD6XL-WX-0.1,2013-01-09 17:23:00,
2013-01-09 09:28:00,42.8,42.4,29.86,North,-999,-999.0,-999.0,98,0.00,,,0.13,AD6XL-WX-0.1,2013-01-09 17:28:00,
2013-01-09 09:33:00,42.7,42.4,29.86,North,-999,-999.0,-999.0,98,0.00,,,0.13,AD6XL-WX-0.1,2013-01-09 17:33:00,
2013-01-09 09:38:00,42.7,42.4,29.86,North,-999,-999.0,-999.0,98,0.00,,,0.13,AD6XL-WX-0.1,2013-01-09 17:38:00,
2013-01-09 09:43:00,42.7,42.4,29.86,North,-999,-999.0,-999.0,98,0.00,,,0.13,AD6XL-WX-0.1,2013-01-09 17:43:00,
2013-01-09 09:48:00,42.7,42.4,29.86,North,-999,-999.0,-999.0,98,0.00,,,0.13,AD6XL-WX-0.1,2013-01-09 17:48:00,
2013-01-09 09:53:00,42.8,42.5,29.86,North,-999,-999.0,-999.0,98,0.00,,,0.13,AD6XL-WX-0.1,2013-01-09 17:53:00,
2013-01-09 09:58:00,42.8,42.5,29.86,North,-999,-999.0,-999.0,98,0.00,,,0.13,AD6XL-WX-0.1,2013-01-09 17:58:00,
2013-01-09 10:03:00,42.8,42.5,29.86,North,-999,-999.0,-999.0,98,0.00,,,0.13,AD6XL-WX-0.1,2013-01-09 18:03:00,
2013-01-09 10:08:00,42.9,42.6,29.87,North,-999,-999.0,-999.0,98,0.00,,,0.13,AD6XL-WX-0.1,2013-01-09 18:08:00,
2013-01-09 10:13:00,42.9,42.6,29.87,North,-999,-999.0,-999.0,98,0.00,,,0.13,AD6XL-WX-0.1,2013-01-09 18:13:00,
2013-01-09 10:18:00,43.0,42.7,29.87,North,-999,-999.0,-999.0,98,0.00,,,0.13,AD6XL-WX-0.1,2013-01-09 18:18:00,
2013-01-09 10:23:00,43.0,42.7,29.87,North,-999,-999.0,-999.0,98,0.00,,,0.13,AD6XL-WX-0.1,2013-01-09 18:23:00,
2013-01-09 10:28:00,43.0,42.8,29.88,North,-999,-999.0,-999.0,98,0.00,,,0.13,AD6XL-WX-0.1,2013-01-09 18:28:00,
2013-01-09 10:33:00,43.1,42.8,29.88,North,-999,-999.0,-999.0,98,0.00,,,0.13,AD6XL-WX-0.1,2013-01-09 18:33:00,
2013-01-09 10:38:00,43.1,42.8,29.88,North,-999,-999.0,-999.0,98,0.00,,,0.13,AD6XL-WX-0.1,2013-01-09 18:38:00,
2013-01-09 10:41:00,43.1,42.8,29.88,North,-999,-999.0,-999.0,98,0.00,,,0.13,AD6XL-WX-0.1,2013-01-09 18:41:00,
2013-01-09 10:42:00,43.1,42.8,29.88,North,-999,-999.0,-999.0,98,0.00,,,0.13,AD6XL-WX-0.1,2013-01-09 18:42:00,
2013-01-09 10:44:00,43.1,42.8,29.88,North,-999,-999.0,-999.0,98,0.00,,,0.13,AD6XL-WX-0.1,2013-01-09 18:44:00,
2013-01-09 10:45:00,43.1,42.8,29.88,North,-999,-999.0,-999.0,98,0.00,,,0.13,AD6XL-WX-0.1,2013-01-09 18:45:00,
2013-01-09 10:48:00,43.1,42.8,29.89,North,-999,-999.0,-999.0,98,0.00,,,0.13,AD6XL-WX-0.1,2013-01-09 18:48:00,
2013-01-09 10:49:00,43.1,42.7,29.89,North,-999,-999.0,-999.0,98,0.00,,,0.13,AD6XL-WX-0.1,2013-01-09 18:49:00,
2013-01-09 10:55:00,43.1,42.7,29.89,North,-999,-999.0,-999.0,98,0.00,,,0.13,AD6XL-WX-0.1,2013-01-09 18:55:00,
2013-01-09 11:00:00,43.1,42.6,29.89,North,-999,-999.0,-999.0,98,0.00,,,0.13,AD6XL-WX-0.1,2013-01-09 19:00:00,
2013-01-09 11:05:00,43.1,42.5,29.89,North,-999,-999.0,-999.0,97,0.00,,,0.13,AD6XL-WX-0.1,2013-01-09 19:05:00,
2013-01-09 11:10:00,43.1,42.5,29.89,North,-999,-999.0,-999.0,97,0.00,,,0.13,AD6XL-WX-0.1,2013-01-09 19:10:00,
2013-01-09 11:15:00,43.1,42.4,29.89,North,-999,-999.0,-999.0,97,0.00,,,0.13,AD6XL-WX-0.1,2013-01-09 19:15:00,
2013-01-09 11:20:00,43.1,42.4,29.90,North,-999,-999.0,-999.0,97,0.00,,,0.13,AD6XL-WX-0.1,2013-01-09 19:20:00,
2013-01-09 11:25:00,43.1,42.3,29.90,North,-999,-999.0,-999.0,97,0.00,,,0.13,AD6XL-WX-0.1,2013-01-09 19:25:00,
2013-01-09 11:30:00,43.1,42.3,29.90,North,-999,-999.0,-999.0,96,0.00,,,0.13,AD6XL-WX-0.1,2013-01-09 19:30:00,
2013-01-09 11:35:00,43.1,42.2,29.90,North,-999,-999.0,-999.0,96,0.00,,,0.13,AD6XL-WX-0.1,2013-01-09 19:35:00,
2013-01-09 11:40:00,43.2,42.1,29.90,North,-999,-999.0,-999.0,96,0.00,,,0.13,AD6XL-WX-0.1,2013-01-09 19:40:00,
2013-01-09 11:45:00,43.2,42.0,29.90,North,-999,-999.0,-999.0,95,0.00,,,0.13,AD6XL-WX-0.1,2013-01-09 19:45:00,
2013-01-09 11:50:00,43.3,41.9,29.90,North,-999,-999.0,-999.0,95,0.00,,,0.13,AD6XL-WX-0.1,2013-01-09 19:50:00,
2013-01-09 11:55:00,43.3,41.9,29.90,North,-999,-999.0,-999.0,94,0.00,,,0.13,AD6XL-WX-0.1,2013-01-09 19:55:00,
2013-01-09 12:00:00,43.4,41.8,29.90,North,-999,-999.0,-999.0,94,0.00,,,0.13,AD6XL-WX-0.1,2013-01-09 20:00:00,
2013-01-09 12:05:00,43.6,41.8,29.90,North,-999,-999.0,-999.0,93,0.00,,,0.13,AD6XL-WX-0.1,2013-01-09 20:05:00,
2013-01-09 12:11:00,43.7,41.8,29.90,North,-999,-999.0,-999.0,92,0.00,,,0.13,AD6XL-WX-0.1,2013-01-09 20:11:00,
2013-01-09 12:16:00,43.9,41.8,29.90,North,-999,-999.0,-999.0,92,0.00,,,0.13,AD6XL-WX-0.1,2013-01-09 20:16:00,
2013-01-09 12:21:00,44.1,41.9,29.90,North,-999,-999.0,-999.0,92,0.00,,,0.13,AD6XL-WX-0.1,2013-01-09 20:21:00,
2013-01-09 12:26:00,44.3,42.1,29.89,North,-999,-999.0,-999.0,91,0.00,,,0.13,AD6XL-WX-0.1,2013-01-09 20:26:00,
2013-01-09 12:31:00,44.5,42.3,29.89,North,-999,-999.0,-999.0,91,0.00,,,0.13,AD6XL-WX-0.1,2013-01-09 20:31:00,
2013-01-09 12:36:00,44.9,42.6,29.89,North,-999,-999.0,-999.0,91,0.00,,,0.13,AD6XL-WX-0.1,2013-01-09 20:36:00,
2013-01-09 12:41:00,45.2,42.7,29.89,North,-999,-999.0,-999.0,90,0.00,,,0.13,AD6XL-WX-0.1,2013-01-09 20:41:00,
2013-01-09 12:46:00,45.5,42.7,29.89,North,-999,-999.0,-999.0,89,0.00,,,0.13,AD6XL-WX-0.1,2013-01-09 20:46:00,
2013-01-09 12:51:00,45.8,42.8,29.89,North,-999,-999.0,-999.0,89,0.00,,,0.13,AD6XL-WX-0.1,2013-01-09 20:51:00,
2013-01-09 12:56:00,46.0,42.8,29.89,North,-999,-999.0,-999.0,88,0.00,,,0.13,AD6XL-WX-0.1,2013-01-09 20:56:00,
2013-01-09 13:01:00,46.1,42.9,29.89,North,-999,-999.0,-999.0,88,0.00,,,0.13,AD6XL-WX-0.1,2013-01-09 21:01:00,
2013-01-09 13:06:00,46.2,42.8,29.89,North,-999,-999.0,-999.0,87,0.00,,,0.13,AD6XL-WX-0.1,2013-01-09 21:06:00,
2013-01-09 13:11:00,46.2,42.7,29.90,North,-999,-999.0,-999.0,87,0.00,,,0.13,AD6XL-WX-0.1,2013-01-09 21:11:00,
2013-01-09 13:16:00,46.0,42.5,29.90,North,-999,-999.0,-999.0,87,0.01,,,0.14,AD6XL-WX-0.1,2013-01-09 21:16:00,
2013-01-09 13:21:00,45.8,42.5,29.90,North,-999,-999.0,-999.0,88,0.01,,,0.14,AD6XL-WX-0.1,2013-01-09 21:21:00,
2013-01-09 13:27:00,45.5,42.6,29.91,North,-999,-999.0,-999.0,89,0.01,,,0.14,AD6XL-WX-0.1,2013-01-09 21:27:00,
2013-01-09 13:32:00,45.2,42.5,29.91,North,-999,-999.0,-999.0,90,0.01,,,0.14,AD6XL-WX-0.1,2013-01-09 21:32:00,
2013-01-09 13:37:00,44.9,42.5,29.91,North,-999,-999.0,-999.0,91,0.01,,,0.14,AD6XL-WX-0.1,2013-01-09 21:37:00,
2013-01-09 13:42:00,44.7,42.6,29.91,North,-999,-999.0,-999.0,92,0.01,,,0.14,AD6XL-WX-0.1,2013-01-09 21:42:00,
2013-01-09 13:47:00,44.4,42.6,29.91,North,-999,-999.0,-999.0,93,0.01,,,0.14,AD6XL-WX-0.1,2013-01-09 21:47:00,
2013-01-09 13:52:00,44.3,42.6,29.91,North,-999,-999.0,-999.0,93,0.01,,,0.14,AD6XL-WX-0.1,2013-01-09 21:52:00,
2013-01-09 13:57:00,44.1,42.6,29.91,North,-999,-999.0,-999.0,94,0.01,,,0.14,AD6XL-WX-0.1,2013-01-09 21:57:00,
2013-01-09 14:02:00,44.0,42.5,29.91,North,-999,-999.0,-999.0,94,0.01,,,0.14,AD6XL-WX-0.1,2013-01-09 22:02:00,
2013-01-09 14:07:00,44.0,42.6,29.91,North,-999,-999.0,-999.0,94,0.01,,,0.14,AD6XL-WX-0.1,2013-01-09 22:07:00,
2013-01-09 14:12:00,44.1,42.7,29.91,North,-999,-999.0,-999.0,94,0.01,,,0.14,AD6XL-WX-0.1,2013-01-09 22:12:00,
2013-01-09 14:17:00,44.2,42.7,29.91,North,-999,-999.0,-999.0,94,0.00,,,0.14,AD6XL-WX-0.1,2013-01-09 22:17:00,
2013-01-09 14:22:00,44.3,42.7,29.91,North,-999,-999.0,-999.0,94,0.01,,,0.15,AD6XL-WX-0.1,2013-01-09 22:22:00,
2013-01-09 14:27:00,44.4,42.7,29.91,North,-999,-999.0,-999.0,93,0.01,,,0.15,AD6XL-WX-0.1,2013-01-09 22:27:00,
2013-01-09 14:32:00,44.5,42.6,29.91,North,-999,-999.0,-999.0,93,0.01,,,0.15,AD6XL-WX-0.1,2013-01-09 22:32:00,
2013-01-09 14:38:00,44.5,42.5,29.91,North,-999,-999.0,-999.0,92,0.02,,,0.16,AD6XL-WX-0.1,2013-01-09 22:38:00,
2013-01-09 14:43:00,44.5,42.5,29.91,North,-999,-999.0,-999.0,92,0.02,,,0.16,AD6XL-WX-0.1,2013-01-09 22:43:00,
2013-01-09 14:48:00,44.4,42.4,29.92,North,-999,-999.0,-999.0,92,0.02,,,0.16,AD6XL-WX-0.1,2013-01-09 22:48:00,
2013-01-09 14:53:00,44.3,42.4,29.92,North,-999,-999.0,-999.0,92,0.02,,,0.16,AD6XL-WX-0.1,2013-01-09 22:53:00,
2013-01-09 14:58:00,44.2,42.4,29.92,North,-999,-999.0,-999.0,93,0.02,,,0.16,AD6XL-WX-0.1,2013-01-09 22:58:00,
2013-01-09 15:03:00,44.1,42.4,29.92,North,-999,-999.0,-999.0,93,0.02,,,0.16,AD6XL-WX-0.1,2013-01-09 23:03:00,
2013-01-09 15:08:00,44.0,42.5,29.92,North,-999,-999.0,-999.0,94,0.02,,,0.16,AD6XL-WX-0.1,2013-01-09 23:08:00,
2013-01-09 15:13:00,44.0,42.6,29.92,North,-999,-999.0,-999.0,94,0.02,,,0.16,AD6XL-WX-0.1,2013-01-09 23:13:00,
2013-01-09 15:18:00,43.9,42.7,29.92,North,-999,-999.0,-999.0,95,0.02,,,0.16,AD6XL-WX-0.1,2013-01-09 23:18:00,
2013-01-09 15:23:00,43.9,42.7,29.92,North,-999,-999.0,-999.0,95,0.01,,,0.16,AD6XL-WX-0.1,2013-01-09 23:23:00,
2013-01-09 15:28:00,43.8,42.6,29.92,North,-999,-999.0,-999.0,95,0.01,,,0.16,AD6XL-WX-0.1,2013-01-09 23:28:00,
2013-01-09 15:33:00,43.7,42.5,29.92,North,-999,-999.0,-999.0,95,0.00,,,0.16,AD6XL-WX-0.1,2013-01-09 23:33:00,
2013-01-09 15:38:00,43.6,42.3,29.92,North,-999,-999.0,-999.0,95,0.00,,,0.16,AD6XL-WX-0.1,2013-01-09 23:38:00,
2013-01-09 15:43:00,43.5,42.2,29.93,North,-999,-999.0,-999.0,95,0.00,,,0.16,AD6XL-WX-0.1,2013-01-09 23:43:00,
2013-01-09 15:49:00,43.4,42.2,29.93,North,-999,-999.0,-999.0,95,0.00,,,0.16,AD6XL-WX-0.1,2013-01-09 23:49:00,
2013-01-09 15:54:00,43.3,42.0,29.93,North,-999,-999.0,-999.0,95,0.00,,,0.16,AD6XL-WX-0.1,2013-01-09 23:54:00,
2013-01-09 15:59:00,43.2,41.9,29.93,North,-999,-999.0,-999.0,95,0.00,,,0.16,AD6XL-WX-0.1,2013-01-09 23:59:00,
2013-01-09 16:04:00,43.0,41.8,29.93,North,-999,-999.0,-999.0,95,0.00,,,0.16,AD6XL-WX-0.1,2013-01-10 00:04:00,
2013-01-09 16:09:00,42.9,41.7,29.93,North,-999,-999.0,-999.0,95,0.00,,,0.16,AD6XL-WX-0.1,2013-01-10 00:09:00,
2013-01-09 16:14:00,42.8,41.7,29.93,North,-999,-999.0,-999.0,95,0.00,,,0.16,AD6XL-WX-0.1,2013-01-10 00:14:00,
2013-01-09 16:19:00,42.8,41.6,29.93,North,-999,-999.0,-999.0,95,0.00,,,0.16,AD6XL-WX-0.1,2013-01-10 00:19:00,
2013-01-09 16:24:00,42.7,41.6,29.93,North,-999,-999.0,-999.0,95,0.00,,,0.16,AD6XL-WX-0.1,2013-01-10 00:24:00,
2013-01-09 16:29:00,42.7,41.6,29.93,North,-999,-999.0,-999.0,95,0.00,,,0.16,AD6XL-WX-0.1,2013-01-10 00:29:00,
2013-01-09 16:34:00,42.6,41.6,29.93,North,-999,-999.0,-999.0,95,0.00,,,0.16,AD6XL-WX-0.1,2013-01-10 00:34:00,
2013-01-09 16:39:00,42.6,41.6,29.93,North,-999,-999.0,-999.0,95,0.00,,,0.16,AD6XL-WX-0.1,2013-01-10 00:39:00,
2013-01-09 16:44:00,42.6,41.6,29.93,North,-999,-999.0,-999.0,95,0.00,,,0.16,AD6XL-WX-0.1,2013-01-10 00:44:00,
2013-01-09 16:49:00,42.6,41.5,29.93,North,-999,-999.0,-999.0,95,0.00,,,0.16,AD6XL-WX-0.1,2013-01-10 00:49:00,
2013-01-09 16:54:00,42.5,41.4,29.93,North,-999,-999.0,-999.0,95,0.00,,,0.16,AD6XL-WX-0.1,2013-01-10 00:54:00,
2013-01-09 17:00:00,42.3,41.2,29.93,North,-999,-999.0,-999.0,95,0.00,,,0.16,AD6XL-WX-0.1,2013-01-10 01:00:00,
2013-01-09 17:05:00,42.2,41.1,29.93,North,-999,-999.0,-999.0,95,0.00,,,0.16,AD6XL-WX-0.1,2013-01-10 01:05:00,
2013-01-09 17:10:00,42.0,40.9,29.93,North,-999,-999.0,-999.0,95,0.00,,,0.16,AD6XL-WX-0.1,2013-01-10 01:10:00,
2013-01-09 17:15:00,41.9,40.7,29.93,North,-999,-999.0,-999.0,95,0.00,,,0.16,AD6XL-WX-0.1,2013-01-10 01:15:00,
2013-01-09 17:20:00,41.7,40.5,29.93,North,-999,-999.0,-999.0,95,0.00,,,0.16,AD6XL-WX-0.1,2013-01-10 01:20:00,
2013-01-09 17:25:00,41.5,40.3,29.93,North,-999,-999.0,-999.0,95,0.00,,,0.16,AD6XL-WX-0.1,2013-01-10 01:25:00,
2013-01-09 17:30:00,41.3,40.2,29.93,North,-999,-999.0,-999.0,95,0.00,,,0.16,AD6XL-WX-0.1,2013-01-10 01:30:00,
2013-01-09 17:35:00,41.2,40.1,29.93,North,-999,-999.0,-999.0,95,0.00,,,0.16,AD6XL-WX-0.1,2013-01-10 01:35:00,
2013-01-09 17:40:00,41.0,40.0,29.93,North,-999,-999.0,-999.0,96,0.00,,,0.16,AD6XL-WX-0.1,2013-01-10 01:40:00,
2013-01-09 17:45:00,40.9,40.0,29.93,North,-999,-999.0,-999.0,96,0.00,,,0.16,AD6XL-WX-0.1,2013-01-10 01:45:00,
2013-01-09 17:50:00,40.8,39.9,29.93,North,-999,-999.0,-999.0,96,0.00,,,0.16,AD6XL-WX-0.1,2013-01-10 01:50:00,
2013-01-09 17:55:00,40.7,39.9,29.93,North,-999,-999.0,-999.0,96,0.00,,,0.16,AD6XL-WX-0.1,2013-01-10 01:55:00,
2013-01-09 18:00:00,40.6,39.8,29.93,North,-999,-999.0,-999.0,96,0.00,,,0.16,AD6XL-WX-0.1,2013-01-10 02:00:00,
2013-01-09 18:05:00,40.5,39.7,29.93,North,-999,-999.0,-999.0,97,0.00,,,0.16,AD6XL-WX-0.1,2013-01-10 02:05:00,
2013-01-09 18:11:00,40.4,39.7,29.94,North,-999,-999.0,-999.0,97,0.00,,,0.16,AD6XL-WX-0.1,2013-01-10 02:11:00,
2013-01-09 18:16:00,40.2,39.6,29.94,North,-999,-999.0,-999.0,97,0.00,,,0.16,AD6XL-WX-0.1,2013-01-10 02:16:00,
2013-01-09 18:21:00,40.1,39.5,29.94,North,-999,-999.0,-999.0,97,0.00,,,0.16,AD6XL-WX-0.1,2013-01-10 02:21:00,
2013-01-09 18:26:00,39.9,39.4,29.94,North,-999,-999.0,-999.0,97,0.00,,,0.16,AD6XL-WX-0.1,2013-01-10 02:26:00,
2013-01-09 18:31:00,39.7,39.3,29.94,North,-999,-999.0,-999.0,98,0.00,,,0.16,AD6XL-WX-0.1,2013-01-10 02:31:00,
2013-01-09 18:36:00,39.5,39.1,29.94,North,-999,-999.0,-999.0,98,0.00,,,0.16,AD6XL-WX-0.1,2013-01-10 02:36:00,
2013-01-09 18:41:00,39.3,39.0,29.94,North,-999,-999.0,-999.0,98,0.00,,,0.16,AD6XL-WX-0.1,2013-01-10 02:41:00,
2013-01-09 18:46:00,39.2,39.0,29.94,North,-999,-999.0,-999.0,99,0.00,,,0.16,AD6XL-WX-0.1,2013-01-10 02:46:00,
2013-01-09 18:51:00,39.1,38.9,29.94,North,-999,-999.0,-999.0,99,0.00,,,0.16,AD6XL-WX-0.1,2013-01-10 02:51:00,
2013-01-09 18:56:00,39.0,38.9,29.94,North,-999,-999.0,-999.0,99,0.00,,,0.16,AD6XL-WX-0.1,2013-01-10 02:56:00,
2013-01-09 19:01:00,38.9,38.8,29.94,North,-999,-999.0,-999.0,99,0.00,,,0.16,AD6XL-WX-0.1,2013-01-10 03:01:00,
2013-01-09 19:06:00,38.8,38.8,29.94,North,-999,-999.0,-999.0,99,0.00,,,0.16,AD6XL-WX-0.1,2013-01-10 03:06:00,
2013-01-09 19:12:00,38.8,38.8,29.94,North,-999,-999.0,-999.0,99,0.00,,,0.16,AD6XL-WX-0.1,2013-01-10 03:12:00,
2013-01-09 19:17:00,38.8,38.8,29.94,North,-999,-999.0,-999.0,99,0.00,,,0.16,AD6XL-WX-0.1,2013-01-10 03:17:00,
2013-01-09 19:22:00,38.9,38.9,29.94,North,-999,-999.0,-999.0,99,0.00,,,0.16,AD6XL-WX-0.1,2013-01-10 03:22:00,
2013-01-09 19:27:00,38.9,38.9,29.94,North,-999,-999.0,-999.0,99,0.00,,,0.16,AD6XL-WX-0.1,2013-01-10 03:27:00,
2013-01-09 19:32:00,38.9,38.9,29.94,North,-999,-999.0,-999.0,99,0.01,,,0.17,AD6XL-WX-0.1,2013-01-10 03:32:00,
2013-01-09 19:37:00,38.8,38.8,29.94,North,-999,-999.0,-999.0,99,0.01,,,0.17,AD6XL-WX-0.1,2013-01-10 03:37:00,
2013-01-09 19:42:00,38.8,38.8,29.94,North,-999,-999.0,-999.0,99,0.01,,,0.17,AD6XL-WX-0.1,2013-01-10 03:42:00,
2013-01-09 19:47:00,38.8,38.8,29.94,North,-999,-999.0,-999.0,99,0.01,,,0.17,AD6XL-WX-0.1,2013-01-10 03:47:00,
2013-01-09 19:52:00,38.7,38.7,29.94,North,-999,-999.0,-999.0,99,0.01,,,0.17,AD6XL-WX-0.1,2013-01-10 03:52:00,
2013-01-09 19:57:00,38.7,38.7,29.94,North,-999,-999.0,-999.0,99,0.01,,,0.17,AD6XL-WX-0.1,2013-01-10 03:57:00,
2013-01-09 20:02:00,38.6,38.6,29.94,North,-999,-999.0,-999.0,100,0.01,,,0.17,AD6XL-WX-0.1,2013-01-10 04:02:00,
2013-01-09 20:07:00,38.5,38.5,29.95,North,-999,-999.0,-999.0,100,0.01,,,0.17,AD6XL-WX-0.1,2013-01-10 04:07:00,
2013-01-09 20:13:00,38.5,38.5,29.95,North,-999,-999.0,-999.0,100,0.01,,,0.17,AD6XL-WX-0.1,2013-01-10 04:13:00,
2013-01-09 20:18:00,38.5,38.5,29.95,North,-999,-999.0,-999.0,100,0.01,,,0.17,AD6XL-WX-0.1,2013-01-10 04:18:00,
2013-01-09 20:23:00,38.4,38.4,29.95,North,-999,-999.0,-999.0,100,0.01,,,0.17,AD6XL-WX-0.1,2013-01-10 04:23:00,
2013-01-09 20:28:00,38.4,38.4,29.95,North,-999,-999.0,-999.0,100,0.01,,,0.17,AD6XL-WX-0.1,2013-01-10 04:28:00,
2013-01-09 20:33:00,38.3,38.3,29.95,North,-999,-999.0,-999.0,100,0.00,,,0.17,AD6XL-WX-0.1,2013-01-10 04:33:00,
2013-01-09 20:38:00,38.2,38.2,29.95,North,-999,-999.0,-999.0,100,0.00,,,0.17,AD6XL-WX-0.1,2013-01-10 04:38:00,
2013-01-09 20:43:00,38.0,38.0,29.95,North,-999,-999.0,-999.0,100,0.00,,,0.17,AD6XL-WX-0.1,2013-01-10 04:43:00,
2013-01-09 20:48:00,37.9,37.9,29.95,North,-999,-999.0,-999.0,100,0.00,,,0.17,AD6XL-WX-0.1,2013-01-10 04:48:00,
2013-01-09 20:53:00,37.8,37.8,29.95,North,-999,-999.0,-999.0,100,0.00,,,0.17,AD6XL-WX-0.1,2013-01-10 04:53:00,
2013-01-09 20:58:00,37.7,37.7,29.95,North,-999,-999.0,-999.0,100,0.00,,,0.17,AD6XL-WX-0.1,2013-01-10 04:58:00,
2013-01-09 21:00:00,37.7,37.7,29.95,North,-999,-999.0,-999.0,100,0.00,,,0.17,AD6XL-WX-0.1,2013-01-10 05:00:00,
2013-01-09 21:03:00,37.7,37.7,29.95,North,-999,-999.0,-999.0,100,0.00,,,0.17,AD6XL-WX-0.1,2013-01-10 05:03:00,
2013-01-09 21:04:00,37.7,37.7,29.95,North,-999,-999.0,-999.0,100,0.00,,,0.17,AD6XL-WX-0.1,2013-01-10 05:04:00,
2013-01-09 21:09:00,37.7,37.7,29.95,North,-999,-999.0,-999.0,100,0.00,,,0.17,AD6XL-WX-0.1,2013-01-10 05:09:00,
2013-01-09 21:14:00,37.7,37.7,29.95,North,-999,-999.0,-999.0,100,0.00,,,0.17,AD6XL-WX-0.1,2013-01-10 05:14:00,
2013-01-09 21:19:00,37.7,37.7,29.95,North,-999,-999.0,-999.0,100,0.00,,,0.17,AD6XL-WX-0.1,2013-01-10 05:19:00,
2013-01-09 21:24:00,37.7,37.7,29.95,North,-999,-999.0,-999.0,100,0.00,,,0.17,AD6XL-WX-0.1,2013-01-10 05:24:00,
2013-01-09 21:29:00,37.7,37.7,29.96,North,-999,-999.0,-999.0,100,0.00,,,0.17,AD6XL-WX-0.1,2013-01-10 05:29:00,
2013-01-09 21:34:00,37.8,37.8,29.96,North,-999,-999.0,-999.0,100,0.00,,,0.17,AD6XL-WX-0.1,2013-01-10 05:34:00,
2013-01-09 21:39:00,37.8,37.8,29.96,North,-999,-999.0,-999.0,100,0.00,,,0.17,AD6XL-WX-0.1,2013-01-10 05:39:00,
2013-01-09 21:45:00,37.8,37.8,29.96,North,-999,-999.0,-999.0,100,0.00,,,0.17,AD6XL-WX-0.1,2013-01-10 05:45:00,
2013-01-09 21:50:00,37.8,37.8,29.96,North,-999,-999.0,-999.0,100,0.00,,,0.17,AD6XL-WX-0.1,2013-01-10 05:50:00,
2013-01-09 21:55:00,37.8,37.8,29.96,North,-999,-999.0,-999.0,100,0.00,,,0.17,AD6XL-WX-0.1,2013-01-10 05:55:00,
2013-01-09 22:00:00,37.8,37.8,29.96,North,-999,-999.0,-999.0,100,0.00,,,0.17,AD6XL-WX-0.1,2013-01-10 06:00:00,
2013-01-09 22:05:00,37.8,37.8,29.96,North,-999,-999.0,-999.0,100,0.00,,,0.17,AD6XL-WX-0.1,2013-01-10 06:05:00,
2013-01-09 22:10:00,37.8,37.8,29.96,North,-999,-999.0,-999.0,100,0.00,,,0.17,AD6XL-WX-0.1,2013-01-10 06:10:00,
2013-01-09 22:15:00,37.8,37.8,29.96,North,-999,-999.0,-999.0,100,0.00,,,0.17,AD6XL-WX-0.1,2013-01-10 06:15:00,
2013-01-09 22:20:00,37.8,37.8,29.96,North,-999,-999.0,-999.0,100,0.00,,,0.17,AD6XL-WX-0.1,2013-01-10 06:20:00,
2013-01-09 22:25:00,37.7,37.7,29.96,North,-999,-999.0,-999.0,100,0.00,,,0.17,AD6XL-WX-0.1,2013-01-10 06:25:00,
2013-01-09 22:30:00,37.6,37.6,29.97,North,-999,-999.0,-999.0,100,0.00,,,0.17,AD6XL-WX-0.1,2013-01-10 06:30:00,
2013-01-09 22:36:00,37.5,37.5,29.97,North,-999,-999.0,-999.0,100,0.00,,,0.17,AD6XL-WX-0.1,2013-01-10 06:36:00,
2013-01-09 22:41:00,37.4,37.4,29.97,North,-999,-999.0,-999.0,100,0.00,,,0.17,AD6XL-WX-0.1,2013-01-10 06:41:00,
2013-01-09 22:46:00,37.3,37.3,29.96,North,-999,-999.0,-999.0,100,0.00,,,0.17,AD6XL-WX-0.1,2013-01-10 06:46:00,
2013-01-09 22:51:00,37.3,37.3,29.96,North,-999,-999.0,-999.0,100,0.00,,,0.17,AD6XL-WX-0.1,2013-01-10 06:51:00,
2013-01-09 22:56:00,37.2,37.2,29.97,North,-999,-999.0,-999.0,100,0.00,,,0.17,AD6XL-WX-0.1,2013-01-10 06:56:00,
2013-01-09 23:01:00,37.1,37.1,29.97,North,-999,-999.0,-999.0,100,0.00,,,0.17,AD6XL-WX-0.1,2013-01-10 07:01:00,
2013-01-09 23:06:00,37.2,37.2,29.97,North,-999,-999.0,-999.0,100,0.00,,,0.17,AD6XL-WX-0.1,2013-01-10 07:06:00,
2013-01-09 23:11:00,37.2,37.2,29.97,North,-999,-999.0,-999.0,100,0.00,,,0.17,AD6XL-WX-0.1,2013-01-10 07:11:00,
2013-01-09 23:16:00,37.3,37.3,29.97,North,-999,-999.0,-999.0,100,0.00,,,0.17,AD6XL-WX-0.1,2013-01-10 07:16:00,
2013-01-09 23:21:00,37.4,37.4,29.97,North,-999,-999.0,-999.0,100,0.00,,,0.17,AD6XL-WX-0.1,2013-01-10 07:21:00,
2013-01-09 23:26:00,37.5,37.5,29.97,North,-999,-999.0,-999.0,100,0.00,,,0.17,AD6XL-WX-0.1,2013-01-10 07:26:00,
2013-01-09 23:31:00,37.5,37.5,29.97,North,-999,-999.0,-999.0,100,0.00,,,0.17,AD6XL-WX-0.1,2013-01-10 07:31:00,
2013-01-09 23:37:00,37.6,37.6,29.97,North,-999,-999.0,-999.0,100,0.00,,,0.17,AD6XL-WX-0.1,2013-01-10 07:37:00,
2013-01-09 23:42:00,37.7,37.7,29.97,North,-999,-999.0,-999.0,100,0.00,,,0.17,AD6XL-WX-0.1,2013-01-10 07:42:00,
2013-01-09 23:47:00,37.8,37.8,29.97,North,-999,-999.0,-999.0,100,0.00,,,0.17,AD6XL-WX-0.1,2013-01-10 07:47:00,
2013-01-09 23:52:00,37.9,37.9,29.97,North,-999,-999.0,-999.0,100,0.00,,,0.17,AD6XL-WX-0.1,2013-01-10 07:52:00,
2013-01-09 23:57:00,37.9,37.9,29.97,North,-999,-999.0,-999.0,100,0.00,,,0.17,AD6XL-WX-0.1,2013-01-10 07:57:00,